DECAYED
Showing default

GNOMES-2, 48910 (Decayed)

Orbit data source: Space-Track

GNOMES-2, 48910 was a payload satellite owned by PlanetiQ (US) in LEO that was launched on Wed, 30 Jun 2021 UTC via an FALCON 9 launch vehicle from the Air Force Eastern Test Range (AFETR). Payloads include a variety of satellites, spacecraft, and rockets equipped with specific instruments for various scientific and technological missions. These include communications satellites like Starlink; space stations such as the ISS; scientific satellites like the Hubble; Earth observation satellites from companies like Planet Labs, Umbra, and HawkEye 360; GPS; miniature CubeSats for education and research; and military/defense satellites.

Not visible in the next 10 days
GNOMES-2 details
Identifier
48910, 2021-059AH
Orbit
Decayed
Last TLE update8 months ago
Origin
Flag of USPlanetiQ (US)
ManufacturerBlue Canyon
MissionDecayed Commercial Communications
Bus & MotorXSAT, Unknown motor
Mass~30 kg wet, ~30 kg dry
Launch date (UTC)
2021-06-30 (4 years ago)
Launch vehicle
FALCON 9
Launch site
Air Force Eastern Test Range (AFETR)
Object type
Payload
Rocket body
Debris
Shape & HBRBox + 2 Pan, 0.6 m
Radar Cross Section0.162 m², Medium (>0.1 m² and < 1m²)

Expand to show TLE details & history

TLE from 8 months ago
0 GNOMES-2
1 48910U 21059AH  24131.55719574  .17347472  27438-5  21614-3 0  9994
2 48910  97.5948 291.7408 0012035 255.9239 104.0727 16.49126212160263
Epoch: 2024-05-10T13:22Z
Definitive object data (Epoch: 2024-05-10T13:22:21.711Z)
Latitude-0.00007°
Longitude-137.68564°
Altitude146.812 km
Speed7.817 km/s
True Right ascension19h 26m 57s
True Declination0° 00' 00"
Sunlit
Object was in full shadow at TLE epoch
Visualization observer readout
Observer readout values are unavailable because the object's trajectory could not be propagated. This is usually caused when the trajectory data is faulty or the object's orbit has decayed.
Visualization observer readout
Observer readout values are unavailable because the object's trajectory could not be propagated. This is usually caused when the trajectory data is faulty or the object's orbit has decayed.
Orbital elements
Apogee altitude146.285 km
Perigee altitude130.599 km
Semi-major axis6,516.579 km
Eccentricity0.0012035
Inclination97.5948°
RAAN291.7408°
Arg. of periapsis255.9239°
True anomaly104.20642°
Mean anomaly104.0727°
Eccentric anomaly104.13957°
Mean motion4.12585 °/min
BSTAR0.00021614
Orbital period87.25 mins
Loading maneuver chart data...
Loading historical data...
Loading historical data...
Loading historical data...
Loading historical data...
Loading historical data...
Loading historical data...
Loading historical data...

GNOMES-2 Visibility forecast

Observer location: undefined°, undefined

This satellite is decayed
Span
Click to sort rows by Start time (UTC) header in descending order
Start Az.
Max El. time (UTC)
Max El. Az.
Max El.
End time (UTC)
End Az.
|